TimeEDT,TemperatureF,Dew PointF,Humidity,Sea Level PressureIn,VisibilityMPH,Wind Direction,Wind SpeedMPH,Gust SpeedMPH,PrecipitationIn,Events,Conditions,WindDirDegrees,DateUTC
12:53 AM,55.0,52.0,89,30.15,10.0,South,5.8,-,N/A,,Clear,180,2012-10-04 04:53:00
1:53 AM,55.9,52.0,87,30.16,10.0,SSW,6.9,-,N/A,,Clear,200,2012-10-04 05:53:00
2:53 AM,54.0,51.1,90,30.16,10.0,South,5.8,-,N/A,,Clear,190,2012-10-04 06:53:00
3:53 AM,54.0,50.0,86,30.15,10.0,South,6.9,-,N/A,,Clear,190,2012-10-04 07:53:00
4:53 AM,53.1,50.0,89,30.16,10.0,SSW,6.9,-,N/A,,Clear,200,2012-10-04 08:53:00
5:53 AM,53.1,50.0,89,30.16,10.0,South,6.9,-,N/A,,Clear,170,2012-10-04 09:53:00
6:53 AM,51.1,48.9,92,30.18,9.0,South,6.9,-,N/A,,Clear,170,2012-10-04 10:53:00
7:53 AM,53.1,50.0,89,30.18,8.0,South,8.1,-,N/A,,Clear,190,2012-10-04 11:53:00
8:53 AM,55.0,52.0,89,30.19,8.0,South,5.8,-,N/A,,Partly Cloudy,180,2012-10-04 12:53:00
9:53 AM,61.0,53.1,75,30.18,10.0,SSW,9.2,17.3,N/A,,Scattered Clouds,210,2012-10-04 13:53:00
10:53 AM,63.0,54.0,72,30.19,10.0,SW,10.4,-,N/A,,Partly Cloudy,220,2012-10-04 14:53:00
11:53 AM,69.1,54.0,58,30.18,10.0,SW,12.7,20.7,N/A,,Clear,230,2012-10-04 15:53:00
12:53 PM,69.1,53.1,57,30.18,10.0,WSW,12.7,-,N/A,,Overcast,240,2012-10-04 16:53:00
1:53 PM,71.1,53.1,53,30.16,10.0,West,17.3,25.3,N/A,,Overcast,270,2012-10-04 17:53:00
2:53 PM,73.0,52.0,48,30.13,10.0,West,10.4,-,N/A,,Partly Cloudy,270,2012-10-04 18:53:00
3:53 PM,73.9,51.1,45,30.12,10.0,WSW,9.2,-,N/A,,Partly Cloudy,250,2012-10-04 19:53:00
4:53 PM,73.9,50.0,43,30.11,10.0,West,11.5,17.3,N/A,,Clear,270,2012-10-04 20:53:00
5:53 PM,73.0,50.0,44,30.12,10.0,West,11.5,18.4,N/A,,Partly Cloudy,260,2012-10-04 21:53:00
6:53 PM,71.1,51.1,49,30.12,10.0,WSW,8.1,-,N/A,,Clear,240,2012-10-04 22:53:00
7:53 PM,64.0,51.1,63,30.12,10.0,SSW,5.8,-,N/A,,Clear,200,2012-10-04 23:53:00
8:53 PM,62.1,52.0,70,30.12,10.0,South,6.9,-,N/A,,Clear,190,2012-10-05 00:53:00
9:53 PM,64.0,52.0,65,30.12,10.0,SSW,9.2,-,N/A,,Clear,210,2012-10-05 01:53:00
10:53 PM,61.0,53.1,75,30.12,10.0,SSW,6.9,-,N/A,,Clear,200,2012-10-05 02:53:00
11:53 PM,62.1,53.1,72,30.11,10.0,SSW,9.2,-,N/A,,Clear,210,2012-10-05 03:53:00